Location: Stoke Bliss
(52.2667°N, 2.5167°W)
Time: 21:34:02
(UTC+00:00)

ASTEX 1 - Pass Details

Date: 03 March 2021
Orbit: 720 x 743 km, 92.7° (Epoch: 16 April)

Event Time Altitude Azimuth Distance (km) Brightness Sun altitude
Rises 19:19:09 0° 12° (NNE) 3,154 6.6 -13.9°
Reaches altitude 10° 19:21:40 10° 21° (NNE) 2,226 5.8 -14.3°
Maximum altitude 19:26:06 34° 86° (E) 1,195 4.0 -14.9°
Enters shadow 19:30:16 11° 150° (SSE) 2,121 5.4 -15.6°
